Regional Weather Roundup
Issued by NWS

Home | Current Version | Previous Version | Graphics & Text | Print | Product List | Glossary On
Versions: 1 2 3 4 5 6 7 8 9 10 11 12 13 14 15 16 17 18 19 20 21 22 23 24 25 26 27 28 29 30 31 32 33 34 35 36 37 38 39 40 41 42 43 44 45 46 47 48 49 50
000
ASUS45 KBOU 280507
RWRCO

WEATHER ROUNDUP FOR COLORADO
NATIONAL WEATHER SERVICE DENVER/BOULDER CO
1100 PM MDT THU AUG 27 2015

NOTE: "FAIR" INDICATES FEW OR NO CLOUDS BELOW 12000 FEET WITH NO
SIGNIFICANT WEATHER AND/OR OBSTRUCTIONS TO VISIBILITY.

COZ001>005-013-030-031-280600-
...NORTHWEST COLORADO...

CITY           SKY/WX    TMP DP  RH WIND       PRES   REMARKS
CRAIG          MOCLDY    56  50  80 CALM      30.31R
HAYDEN         NOT AVBL
MEEKER         MOCLDY    58  52  80 SE5       30.34R
MOUNT WERNER   NOT AVBL
STEAMBOAT SPGS MOCLDY    53  49  86 E5        30.34F
WALDEN         MOCLDY    46  43  87 SE6       30.40R
$$

COZ006>008-011-280600-
...WEST CENTRAL VALLEYS...

CITY           SKY/WX    TMP DP  RH WIND       PRES   REMARKS
GRAND JUNCTION MOCLDY    67  59  75 E5        30.21S
MONTROSE       CLEAR     65  55  70 SE9       30.28R
EAGLE          CLOUDY    61  55  82 CALM      30.38R
RIFLE          CLOUDY    59  55  87 NE8       30.31S
DELTA          PTCLDY    67  55  64 NE13      30.25R HAZE
NUCLA          CLEAR     66  52  59 E10       30.30R
$$

COZ017>023-064>068-280600-
...SOUTHWEST COLORADO...

CITY           SKY/WX    TMP DP  RH WIND       PRES   REMARKS
DURANGO        PTCLDY    60  53  77 NE3       30.29S
CORTEZ         CLEAR     61  53  75 NE7       30.25S
PAGOSA SPRINGS PTCLDY    56  55  94 NE3       30.38S
TELLURIDE      PTCLDY    52  49  89 CALM      30.51S
WOLF CREEK PAS PTCLDY    45  39  81 N10       30.69S
$$

COZ009-010-012-014-032>034-037-058>063-280600-
...CENTRAL COLORADO...

CITY           SKY/WX    TMP DP  RH WIND       PRES   REMARKS
ASPEN          CLOUDY    56  45  66 VRB7G25   30.45R THUNDER
BUENA VISTA    PTCLDY    56  45  64 NW12      30.39F
COPPER MTN     RAIN      46  41  81 W29G37    30.67S
BERTHOUD PASS  TSTM      36  25  64 NW23G33   30.71R
COTTONWOOD PAS PTCLDY    55  43  62 W7        30.52F
GUNNISON       CLEAR     55  46  71 NW5       30.43R
KREMMLING      MOCLDY    52  46  82 CALM      30.39S
LEADVILLE      PTCLDY    43  43 100 NE7       30.53S
SALIDA         PTCLDY    61  46  57 W5        30.44S
SUNLIGHT       TSTM      46  45  93 N9G17     30.63F
WILKERSON PASS CLEAR     46  37  71 N9G17     30.62F
$$

COZ069>075-280600-
...SAN LUIS VALLEY/SANGRE DE CRISTO MOUNTAINS...

CITY           SKY/WX    TMP DP  RH WIND       PRES   REMARKS
ALAMOSA        PTCLDY    54  49  83 MISG      30.34R
LA VETA PASS   DRIZZLE   46  45  93 NE8       30.54S
SAGUACHE       CLEAR     59  46  63 NW10      30.38S
$$

COZ035-036-038>040-280600-
...NORTHERN COLORADO FRONT RANGE...

CITY           SKY/WX    TMP DP  RH WIND       PRES   REMARKS
DENVER INTL AP MOCLDY    67  56  67 SW7       30.19R
DMNS CITY PARK   N/A     65  57  74 SE7       30.18F
AURORA         PTCLDY    63  57  81 S7        30.21S
FRONT RANGE AP NOT AVBL
ERIE MUNI ARPT PTCLDY    65  58  78 CALM      30.16F
BOULDER MUN AP MOCLDY    72  50  46 SW7       30.16F
CENTENNIAL     PTCLDY    65  55  70 W9        30.22S
BROOMFIELD     NOT AVBL
FORT COLLINS   MOCLDY    68  55  64 CALM      30.16F
LONGMONT       MOCLDY    70  59  68 CALM      30.17F
$$

COZ041-046-047-076>085-087-088-280600-
...PIKES PEAK/PALMER DIVIDE AND SOUTHERN FOOTHILLS...

CITY           SKY/WX    TMP DP  RH WIND       PRES   REMARKS
COLO. SPRINGS  MOCLDY    64  53  67 CALM      30.26S
A. F. ACADEMY  MOCLDY    57  55  93 N5        30.28R
ELLICOTT       PTCLDY   N/A N/A N/A NW5G26    30.24R
FALCON         PTCLDY    57  53  87 MISG      30.30S
FORT CARSON    PTCLDY    63  58  83 SW6       30.23S
LIMON          PTCLDY    59  57  93 W10       30.17S
MONUMENT HILL  CLEAR     55  50  82 SW7       30.31S
TRINIDAD       LGT RAIN  63  58  83 NW10      30.26R
$$

COZ042>045-048>051-090-091-280600-
...NORTHEAST COLORADO...

CITY           SKY/WX    TMP DP  RH WIND       PRES   REMARKS
GREELEY ARPT   PTCLDY    63  55  77 CALM      30.14S
AKRON          CLEAR     63  59  87 W8        30.12R
BURLINGTON     MOCLDY    69  56  62 NW9       30.08S
WRAY           CLEAR     66  61  84 SW5       30.04S
STERLING       CLEAR     63  55  77 N6        30.07S
HOLYOKE        CLEAR     66  57  72 NW7       30.04S
FORT MORGAN    CLEAR     63  60  88 NW8       30.13R
$$

COZ086-089-092>099-280600-
...SOUTHEAST COLORADO...

CITY           SKY/WX    TMP DP  RH WIND       PRES   REMARKS
PUEBLO         MOCLDY    65  60  84 NW9       30.17S
LA JUNTA       CLOUDY    71  57  61 W8        30.11S
LAMAR          MOCLDY    69  62  78 W7        30.02F
SPRINGFIELD      N/A     69  59  70 NW10      30.09R
$$




USA.gov is the U.S. government's official web portal to all federal, state and local government web resources and services.